| time (UTC) | temp F | wind direction | speed MPH | gust MPH | rain 1hr in | rain 24hr in | rain mn in | humidity % | barometer mb |
| 20260508063056 | 60 | 0 | 0.0 | 0.0 | 0.00 | 0.00 | 0.00 | 81 | 1015.2 |
| 20260508061556 | 60 | 0 | 0.0 | 0.0 | 0.00 | 0.00 | 0.00 | 81 | 1015.4 |
| 20260508060059 | 60 | 0 | 0.0 | 0.0 | 0.00 | 0.00 | 0.00 | 80 | 1015.4 |
| 20260508054559 | 59 | 0 | 0.0 | 0.0 | 0.00 | 0.00 | 0.00 | 80 | 1015.5 |
| 20260508053056 | 60 | 0 | 0.0 | 0.0 | 0.00 | 0.00 | 0.00 | 78 | 1015.9 |
| 20260508051559 | 60 | 0 | 0.0 | 0.0 | 0.00 | 0.00 | 0.00 | 78 | 1015.9 |
| 20260508050057 | 60 | 0 | 0.0 | 0.0 | 0.00 | 0.00 | 0.00 | 77 | 1015.7 |
| 20260508044606 | 61 | 0 | 0.0 | 0.0 | 0.00 | 0.00 | 0.00 | 77 | 1015.8 |
| 20260508043106 | 61 | 0 | 0.0 | 0.0 | 0.00 | 0.00 | 0.00 | 78 | 1015.7 |
| 20260508041554 | 61 | 0 | 0.0 | 0.0 | 0.00 | 0.00 | 0.00 | 77 | 1015.6 |
| 20260508040059 | 61 | 0 | 0.0 | 0.0 | 0.00 | 0.00 | 0.00 | 76 | 1015.6 |
| 20260508034556 | 61 | 0 | 0.0 | 0.0 | 0.00 | 0.00 | 0.00 | 76 | 1015.6 |
| 20260508033055 | 62 | 0 | 0.0 | 0.0 | 0.00 | 0.00 | 0.00 | 75 | 1015.5 |
| 20260508031551 | 62 | 0 | 0.0 | 0.0 | 0.00 | 0.00 | 0.00 | 75 | 1015.2 |
| 20260508030059 | 62 | 0 | 0.0 | 0.0 | 0.00 | 0.00 | 0.00 | 74 | 1015.0 |
| 20260508024552 | 62 | 0 | 0.0 | 0.0 | 0.00 | 0.00 | 0.00 | 74 | 1014.9 |
| 20260508023052 | 63 | 0 | 0.0 | 0.0 | 0.00 | 0.00 | 0.00 | 73 | 1014.8 |
| 20260508021552 | 63 | 0 | 0.0 | 0.0 | 0.00 | 0.00 | 0.00 | 72 | 1014.8 |
| 20260508020053 | 63 | 0 | 0.0 | 0.0 | 0.00 | 0.00 | 0.00 | 71 | 1014.7 |
| 20260508014553 | 64 | 0 | 0.0 | 0.0 | 0.00 | 0.00 | 0.00 | 69 | 1014.6 |
| 20260508013051 | 64 | 0 | 0.0 | 0.0 | 0.00 | 0.00 | 0.00 | 69 | 1014.7 |
| 20260508011555 | 65 | 0 | 0.0 | 0.0 | 0.00 | 0.00 | 0.00 | 68 | 1014.7 |
| 20260508010056 | 65 | 0 | 0.0 | 0.0 | 0.00 | 0.00 | 0.00 | 67 | 1014.5 |
| 20260508004555 | 65 | 0 | 0.0 | 2.0 | 0.00 | 0.00 | 0.00 | 67 | 1014.7 |
| 20260508003053 | 66 | 0 | 0.0 | 0.0 | 0.00 | 0.00 | 0.00 | 65 | 1014.7 |
| 20260508001555 | 67 | 0 | 0.0 | 2.0 | 0.00 | 0.00 | 0.00 | 65 | 1014.8 |
| 20260508000054 | 67 | 0 | 0.0 | 5.0 | 0.00 | 0.00 | 0.00 | 64 | 1014.8 |
| 20260507234600 | 67 | 0 | 0.0 | 0.0 | 0.00 | 0.00 | 0.00 | 62 | 1015.0 |
| 20260507233053 | 68 | 0 | 0.0 | 6.0 | 0.00 | 0.00 | 0.00 | 61 | 1015.0 |
| 20260507231556 | 68 | 0 | 0.0 | 6.0 | 0.00 | 0.00 | 0.00 | 62 | 1015.0 |
| 20260507230058 | 68 | 0 | 0.0 | 6.0 | 0.00 | 0.00 | 0.00 | 62 | 1015.2 |
| 20260507224555 | 69 | 0 | 0.0 | 5.0 | 0.00 | 0.00 | 0.00 | 60 | 1015.3 |
| 20260507223058 | 70 | 0 | 0.0 | 0.0 | 0.00 | 0.00 | 0.00 | 53 | 1015.3 |
| 20260507221552 | 70 | 0 | 0.0 | 0.0 | 0.00 | 0.00 | 0.00 | 52 | 1015.5 |
| 20260507220054 | 70 | 0 | 0.0 | 0.0 | 0.00 | 0.00 | 0.00 | 50 | 1015.4 |
| 20260507214558 | 70 | 0 | 0.0 | 0.0 | 0.00 | 0.02 | 0.00 | 51 | 1015.6 |
| 20260507213054 | 71 | 115 | 0.0 | 2.0 | 0.00 | 0.02 | 0.00 | 52 | 1015.6 |
| 20260507211554 | 71 | 0 | 0.0 | 2.0 | 0.00 | 0.02 | 0.00 | 49 | 1016.0 |
| 20260507210056 | 70 | 0 | 0.0 | 3.0 | 0.00 | 0.02 | 0.00 | 50 | 1016.4 |
| 20260507204554 | 71 | 0 | 0.0 | 4.0 | 0.00 | 0.02 | 0.00 | 47 | 1016.3 |
| 20260507203102 | 72 | 0 | 0.0 | 3.0 | 0.00 | 0.02 | 0.00 | 48 | 1016.3 |
| 20260507201550 | 72 | 0 | 0.0 | 2.0 | 0.00 | 0.02 | 0.00 | 50 | 1016.0 |
| 20260507200055 | 71 | 0 | 0.0 | 6.0 | 0.00 | 0.02 | 0.00 | 51 | 1016.2 |
| 20260507194552 | 73 | 0 | 0.0 | 6.0 | 0.00 | 0.02 | 0.00 | 46 | 1016.7 |
| 20260507193055 | 72 | 0 | 0.0 | 4.0 | 0.00 | 0.02 | 0.00 | 49 | 1016.8 |
| 20260507191554 | 72 | 0 | 0.0 | 6.0 | 0.00 | 0.02 | 0.00 | 46 | 1017.3 |
| 20260507190053 | 74 | 0 | 0.0 | 3.0 | 0.00 | 0.02 | 0.00 | 47 | 1017.6 |
| 20260507184555 | 73 | 0 | 0.0 | 5.0 | 0.00 | 0.02 | 0.00 | 48 | 1017.6 |
| 20260507183055 | 75 | 0 | 0.0 | 6.0 | 0.00 | 0.02 | 0.00 | 46 | 1017.6 |
| 20260507181555 | 74 | 0 | 0.0 | 3.0 | 0.00 | 0.02 | 0.00 | 48 | 1017.5 |
| 20260507180054 | 73 | 0 | 0.0 | 4.0 | 0.00 | 0.02 | 0.00 | 48 | 1017.6 |
| 20260507174604 | 72 | 0 | 0.0 | 4.0 | 0.00 | 0.02 | 0.00 | 49 | 1017.7 |
| 20260507173103 | 72 | 0 | 0.0 | 6.0 | 0.00 | 0.02 | 0.00 | 50 | 1018.1 |
| 20260507171609 | 71 | 149 | 0.0 | 5.0 | 0.00 | 0.02 | 0.00 | 51 | 1018.2 |
| 20260507170057 | 70 | 0 | 0.0 | 2.0 | 0.00 | 0.02 | 0.00 | 52 | 1018.8 |
| 20260507164605 | 69 | 0 | 1.0 | 5.0 | 0.00 | 0.02 | 0.00 | 53 | 1019.2 |
| 20260507163053 | 68 | 0 | 0.0 | 3.0 | 0.00 | 0.02 | 0.00 | 56 | 1019.3 |
| 20260507161608 | 67 | 0 | 0.0 | 4.0 | 0.00 | 0.02 | 0.00 | 60 | 1019.4 |
| 20260507160052 | 66 | 0 | 0.0 | 0.0 | 0.00 | 0.02 | 0.00 | 62 | 1019.3 |
| 20260507154553 | 65 | 0 | 0.0 | 8.0 | 0.00 | 0.03 | 0.00 | 63 | 1019.2 |
| 20260507153052 | 65 | 0 | 0.0 | 4.0 | 0.00 | 0.03 | 0.00 | 65 | 1019.3 |
| 20260507151600 | 64 | 0 | 0.0 | 0.0 | 0.00 | 0.03 | 0.00 | 66 | 1019.6 |
| 20260507144557 | 62 | 0 | 0.0 | 0.0 | 0.00 | 0.06 | 0.00 | 70 | 1019.8 |
| 20260507143104 | 61 | 0 | 0.0 | 0.0 | 0.00 | 0.06 | 0.00 | 73 | 1020.0 |
| 20260507141601 | 59 | 0 | 0.0 | 0.0 | 0.00 | 0.06 | 0.00 | 77 | 1020.0 |
| 20260507140058 | 57 | 0 | 0.0 | 0.0 | 0.00 | 0.06 | 0.00 | 82 | 1020.0 |
| 20260507134602 | 55 | 0 | 0.0 | 2.0 | 0.00 | 0.06 | 0.00 | 85 | 1020.1 |
| 20260507133100 | 54 | 0 | 0.0 | 0.0 | 0.00 | 0.06 | 0.00 | 86 | 1020.2 |
| 20260507131613 | 53 | 0 | 0.0 | 0.0 | 0.00 | 0.06 | 0.00 | 87 | 1020.1 |
| 20260507130057 | 52 | 0 | 0.0 | 0.0 | 0.00 | 0.06 | 0.00 | 89 | 1020.2 |
| 20260507124556 | 51 | 0 | 0.0 | 0.0 | 0.00 | 0.06 | 0.00 | 90 | 1020.2 |
| 20260507123106 | 51 | 0 | 0.0 | 0.0 | 0.00 | 0.06 | 0.00 | 90 | 1020.1 |
| 20260507121605 | 50 | 0 | 0.0 | 0.0 | 0.00 | 0.06 | 0.00 | 90 | 1020.0 |
| 20260507120057 | 50 | 0 | 0.0 | 0.0 | 0.00 | 0.06 | 0.00 | 90 | 1020.0 |
| 20260507114603 | 50 | 0 | 0.0 | 0.0 | 0.00 | 0.06 | 0.00 | 89 | 1020.1 |
| 20260507113100 | 50 | 0 | 0.0 | 0.0 | 0.00 | 0.06 | 0.00 | 89 | 1019.8 |
| 20260507111559 | 51 | 0 | 0.0 | 0.0 | 0.00 | 0.06 | 0.00 | 89 | 1019.5 |
| 20260507110118 | 51 | 0 | 0.0 | 0.0 | 0.00 | 0.06 | 0.00 | 88 | 1019.4 |
| 20260507104555 | 51 | 0 | 0.0 | 3.0 | 0.00 | 0.06 | 0.00 | 88 | 1019.4 |
| 20260507103057 | 52 | 0 | 0.0 | 0.0 | 0.00 | 0.06 | 0.00 | 87 | 1019.0 |
| 20260507101552 | 52 | 0 | 0.0 | 3.0 | 0.00 | 0.06 | 0.00 | 87 | 1018.5 |
| 20260507100054 | 52 | 0 | 0.0 | 2.0 | 0.00 | 0.06 | 0.00 | 87 | 1018.5 |
| 20260507094608 | 52 | 0 | 0.0 | 0.0 | 0.00 | 0.06 | 0.00 | 87 | 1018.4 |
| 20260507093059 | 52 | 0 | 0.0 | 0.0 | 0.00 | 0.06 | 0.00 | 86 | 1018.2 |
| 20260507091635 | 52 | 0 | 0.0 | 0.0 | 0.00 | 0.06 | 0.00 | 85 | 1017.8 |
| 20260507090107 | 53 | 0 | 0.0 | 0.0 | 0.00 | 0.06 | 0.00 | 84 | 1017.8 |
| 20260507084558 | 53 | 0 | 0.0 | 0.0 | 0.00 | 0.06 | 0.00 | 84 | 1017.5 |
| 20260507083057 | 54 | 0 | 0.0 | 0.0 | 0.00 | 0.06 | 0.00 | 84 | 1017.3 |
| 20260507081556 | 54 | 0 | 0.0 | 0.0 | 0.00 | 0.06 | 0.00 | 83 | 1017.6 |
| 20260507080057 | 54 | 0 | 0.0 | 0.0 | 0.00 | 0.06 | 0.00 | 82 | 1017.6 |
| 20260507074601 | 55 | 0 | 0.0 | 2.0 | 0.00 | 0.06 | 0.00 | 81 | 1017.3 |
| 20260507073102 | 55 | 0 | 0.0 | 0.0 | 0.00 | 0.06 | 0.00 | 81 | 1017.3 |
| 20260507071559 | 55 | 0 | 0.0 | 0.0 | 0.00 | 0.06 | 0.00 | 81 | 1017.3 |
| 20260507070109 | 55 | 0 | 0.0 | 0.0 | 0.00 | 0.06 | 0.00 | 81 | 1017.1 |